Flag for U.S.A. Weather past 2 weeks in New York, New York, U.S.A.

Now
73 °F

Overcast.


Feels Like: 77 °F
Forecast: 67 / 86 °F
Wind: 3 mph from East

Location: New York City - Central Park

Current Time: Jul 4, 2015 at 9:11:33 PM

Latest Report: Jul 4, 2015 at 7:51 PM


Visibility: 10 mi

Pressure: 29.97 "Hg

Humidity: 51%

Dew point: 54 °F

Location of New YorkLocation

Historic Weather in New York — Graph

°F

New York temperature yesterday

Maximum temperature yesterday: 80 °F (at 2:51 PM)
Minimum temperature yesterday: 66 °F (at 5:51 AM)
Average temperature yesterday: 73 °F

Past Weeks' High & Low Weather Summary

 TemperatureHumidityPressure
High89 °F (Jun 23, 1:51 PM)94% (Jun 28, 5:51 AM)30.12 "Hg (Jun 28, 5:51 AM)
Low59 °F (Jun 27, 8:51 PM)32% (Jun 25, 12:51 PM)29.66 "Hg (Jun 28, 9:51 AM)
Average74 °F62%29.91 "Hg
* Reported Jun 19 7:51 PM — Jul 4 7:51 PM, New York, Weather by CustomWeather, © 2015

Note: Actual official high and low records may vary slightly from our data, if they occured in-between our weather recording intervals... More about our weather records

Advertising

New York weather history for previous 24 hours

 ConditionsComfort  
Time TempWeatherWind HumidityBarometerVisibility
7:51 PM
Sat, Jul 4
73 °FOvercast.3 mph51%29.97 "Hg10 mi
6:51 PM74 °FScattered clouds.6 mph46%29.95 "Hg10 mi
5:51 PM74 °FBroken clouds.3 mph53%29.94 "Hg10 mi
4:51 PM74 °FSunny.3 mph57%29.94 "Hg10 mi
3:51 PM74 °FPassing clouds.6 mph57%29.94 "Hg10 mi
2:51 PM72 °FCloudy.No wind68%29.95 "Hg8 mi
1:51 PM70 °FLight rain. More clouds than sun.N/A73%29.97 "Hg9 mi
12:51 PM72 °FMostly cloudy.7 mph68%29.96 "Hg10 mi
11:51 AM73 °FOvercast.8 mph51%29.96 "Hg10 mi
10:51 AM72 °FOvercast.5 mph61%29.96 "Hg10 mi
9:51 AM73 °FMostly cloudy.6 mph64%29.95 "Hg10 mi
8:51 AM71 °FOvercast.6 mph68%29.94 "Hg10 mi
7:51 AM71 °FScattered clouds.3 mph61%29.94 "Hg10 mi
6:51 AM71 °FOvercast.No wind63%29.94 "Hg10 mi
5:51 AM70 °FPassing clouds.3 mph64%29.94 "Hg10 mi
4:51 AM70 °FPassing clouds.No wind71%29.95 "Hg10 mi
3:51 AM71 °FPassing clouds.3 mph63%29.96 "Hg10 mi
2:51 AM71 °FPassing clouds.3 mph63%29.96 "Hg10 mi
1:51 AM71 °FClear.5 mph68%29.98 "Hg10 mi
12:51 AM71 °FClear.No wind63%29.98 "Hg10 mi
11:51 PM
Fri, Jul 3
71 °FClear.5 mph63%29.97 "Hg10 mi
10:51 PM72 °FClear.No wind64%29.98 "Hg10 mi
9:51 PM73 °FClear.3 mph59%29.98 "Hg10 mi
Weather by CustomWeather, © 2015

See weather overviewHow to use our weather pages